Location: Buckeye Ditch
(40.9104°N, 122.9517°W)
Time: 16:59:23
(UTC+00:00)

SR - Pass Details

Date: 24 May 2025
Orbit: 570 x 855 km, 66.7° (Epoch: 13 June)

Event Time Altitude Azimuth Distance (km) Brightness Sun altitude
Rises 16:25:49 0° 328° (NNW) 3,270 ? 39.1°
Reaches altitude 10° 16:28:20 10° 326° (NW) 2,295 ? 39.6°
Maximum altitude 16:33:32 70° 244° (WSW) 758 ? 40.6°
Drops below altitude 10° 16:38:16 10° 161° (SSE) 2,091 ? 41.5°
Sets 16:40:28 0° 159° (SSE) 2,956 ? 41.9°
